Location: Newark
(45.5000°N, 11.4167°E)
Time: 10:26:36
(UTC+00:00)

A-11 Canister half - Pass Details

Date: 21 August 2019
Orbit: 1514 x 1686 km, 47.2° (Epoch: 15 September)

Event Time Altitude Azimuth Distance (km) Brightness Sun altitude
Rises 16:21:15 0° 209° (SSW) 4,658 12.0 18.4°
Reaches altitude 10° 16:24:30 10° 202° (SSW) 3,692 11.4 17.8°
Maximum altitude 16:32:52 39° 137° (SE) 2,191 9.7 16.4°
Drops below altitude 10° 16:41:31 10° 74° (ENE) 3,816 10.6 14.8°
Sets 16:44:55 0° 67° (ENE) 4,830 11.1 14.2°
